CAPE
0 0 0 0 0 0 0 0 0 0 14 0 0 0 0 0 0 0 0 0 0 0 101 14 7 5 5 3 7 5 3 10 10 12 6 12 9 10 1 4 5 14 5 10 8 4 0 0 0
0 0 0 0 0 0 0 0 0 0 1 0 0 7 13 2 0 0 0 0 0 0 87 7 4 6 9 3 4 6 6 5 14 19 13 9 13 6 17 14 11 4 9 8 8 4 0 0 0
0 0 0 0 0 0 0 0 0 21 8 0 0 6 17 16 0 0 0 0 0 0 77 0 8 6 10 4 2 9 7 4 10 10 12 2 7 47 17 5 12 6 8 10 9 7 3 2 6
0 0 0 0 0 0 0 0 0 0 34 17 9 23 0 0 0 0 0 0 0 0 69 0 12 5 9 5 2 8 8 3 8 14 18 15 18 10 10 1 7 4 4 8 4 4 17 13 11
0 0 0 0 0 0 0 0 0 0 0 4 26 40 13 0 0 0 0 0 2 6 35 0 45 0 2 5 1 6 5 6 8 15 11 25 12 5 7 8 21 13 20 15 3 7 6 0 0
0 0 0 0 0 0 0 0 0 0 0 0 0 1 30 0 0 0 0 0 40 20 21 40 28 0 0 6 2 1 7 5 5 11 14 13 4 5 14 15 13 18 20 9 14 11 0 0 0
0 0 0 0 0 0 0 0 0 0 0 0 0 0 4 17 0 12 17 20 30 10 31 78 59 0 0 1 0 0 3 5 4 6 7 5 5 6 15 9 12 20 13 17 14 0 0 0 0
0 0 0 0 0 0 0 0 0 0 0 0 0 0 0 20 0 0 0 0 5 0 0 49 114 44 6 2 0 0 0 2 3 2 6 5 8 8 5 4 15 17 18 13 6 0 0 0 0
0 0 0 0 0 0 0 0 0 0 0 0 39 43 14 2 0 0 0 0 0 5 0 0 45 81 39 11 0 0 0 0 1 2 1 2 3 5 1 0 11 14 16 5 0 0 0 0 0
0 0 0 0 0 0 0 0 0 0 0 0 0 42 2 19 0 0 0 0 0 0 0 0 0 33 77 65 0 0 0 0 0 0 1 0 0 0 0 0 2 7 11 0 0 0 0 0 0
0 0 0 0 0 0 0 0 0 0 0 0 0 0 0 11 0 0 0 0 0 0 0 1 0 2 46 89 12 2 0 0 0 0 0 0 0 0 0 0 3 7 0 0 0 0 0 0 0
0 0 0 0 0 0 0 0 0 0 0 0 0 0 0 20 12 0 0 0 0 0 0 1 0 0 5 27 32 10 1 0 0 0 0 0 0 0 0 0 0 0 0 0 0 0 0 0 0
0 0 0 0 0 0 0 0 0 0 0 0 0 0 0 32 40 1 0 0 0 0 0 1 0 0 3 2 3 14 2 0 0 0 0 0 0 0 0 0 0 0 0 0 0 0 0 0 0
0 0 0 0 0 0 0 0 0 0 0 0 0 0 0 14 54 29 0 0 2 31 27 58 34 0 3 4 3 4 1 0 0 0 0 0 0 0 0 0 0 2 0 0 0 0 0 0 0
0 0 0 0 0 0 0 0 0 0 0 0 0 0 0 0 1 30 4 0 0 13 57 78 61 24 6 4 4 3 2 0 0 0 0 0 0 0 0 0 0 0 0 0 0 0 0 0 0
0 0 0 0 0 0 0 0 0 0 0 0 0 0 0 0 0 17 42 0 0 0 28 61 138 104 66 14 2 1 0 0 0 0 0 0 0 0 0 0 0 0 0 0 0 0 0 0 0
0 0 0 0 0 0 0 0 0 0 0 0 0 0 0 0 0 0 0 24 0 0 1 71 137 110 122 66 4 3 1 0 0 0 0 0 0 0 0 0 0 0 0 0 0 0 0 0 0
0 0 0 0 0 0 0 0 0 0 0 0 0 0 0 0 0 0 0 0 11 1 0 2 134 120 71 66 7 0 0 0 0 0 0 0 0 0 0 0 0 0 0 0 0 0 0 0 0
0 0 0 0 0 0 0 0 0 0 0 0 0 0 0 0 0 0 0 0 0 17 5 0 71 172 71 40 7 1 0 0 0 0 0 0 0 0 0 0 0 0 0 0 0 0 0 0 0
0 0 0 0 0 0 0 0 0 0 0 0 0 0 0 0 0 0 0 0 0 10 37 9 3 139 74 22 0 0 0 0 0 0 0 0 0 0 0 0 0 0 0 0 0 0 0 0 0
0 0 0 0 0 0 0 0 0 0 0 0 0 0 0 0 0 0 0 0 0 0 6 11 3 30 49 0 0 0 0 0 0 0 0 0 0 0 0 0 0 0 0 0 0 0 0 0 0
0 0 0 0 0 0 0 0 0 0 0 0 0 0 0 0 0 0 0 0 0 0 24 33 10 2 3 0 0 0 0 0 0 0 0 0 0 0 0 0 0 0 0 0 0 0 0 0 0
0 0 0 0 0 0 0 0 0 0 0 0 0 0 0 0 0 0 0 0 0 0 20 55 15 3 0 0 0 0 0 0 0 0 0 0 0 0 0 0 0 0 0 0 0 0 0 0 0
0 0 0 0 0 0 0 0 0 0 0 0 0 0 0 0 0 0 0 0 0 0 6 54 47 30 0 0 0 0 0 0 0 2 0 0 0 0 0 0 0 0 0 0 0 0 0 0 0
0 0 0 0 0 0 0 0 0 0 0 0 0 0 0 0 0 0 0 0 0 0 0 28 65 34 9 0 0 0 0 0 0 0 0 0 0 0 0 0 0 0 0 0 0 0 0 0 0
0 0 0 0 0 0 0 0 0 0 0 0 0 0 0 0 0 0 0 0 0 0 0 0 65 78 47 0 0 0 0 0 0 0 0 0 0 0 0 0 0 0 0 0 0 0 0 0 0
0 0 0 0 0 0 0 0 0 0 0 0 0 0 0 0 0 0 0 0 0 0 0 0 0 53 42 0 1 0 0 0 0 2 0 0 0 0 0 0 0 0 0 0 0 0 0 0 0
0 0 0 0 0 0 0 0 0 0 0 0 0 0 0 0 0 0 1 0 0 0 0 0 0 2 6 2 0 2 4 3 3 6 5 4 2 0 0 0 0 1 0 1 0 0 0 0 0
0 0 0 0 0 0 0 0 0 0 0 0 0 5 0 0 1 0 0 0 0 0 0 0 0 0 1 1 2 1 5 4 5 5 4 2 1 0 0 0 2 1 0 0 0 0 0 0 0
0 0 0 0 0 0 0 0 0 0 0 2 2 7 0 0 2 1 3 2 2 1 0 0 0 1 1 1 7 9 6 5 6 3 1 0 0 1 2 2 1 0 0 0 0 0 0 0 0
CIN
-0 -0 -0 -0 -0 -0 -0 -0 -0 -0 -44 -15 -0 -0 -0 -0 -0 -0 -0 -0 -0 -0 -91 -114 -1 -0 -0 -0 -0 -0 -0 -0 -0 -0 -0 -0 -0 -3 -0 -1 -2 -3 -2 -0 -0 -0 -0 -0 -0
-0 -0 -0 -0 -0 -0 -0 -0 -0 -0 -13 -0 -0 -85 -73 -26 -0 -0 -0 -0 -0 -0 -105 -56 -4 -1 -2 -1 -0 -0 -0 -1 -0 -1 -2 -1 -0 -1 -1 -0 -1 -0 -0 -0 -0 -0 -0 -0 -0
-0 -0 -0 -0 -0 -0 -0 -0 -0 -32 -57 -0 -0 -126 -95 -67 -0 -0 -0 -0 -0 -0 -119 -0 -5 -3 -4 -2 -0 -0 -0 -0 -1 -0 -1 -0 -1 -0 -2 -0 -0 -0 -0 -0 -0 -0 -0 -0 -10
-0 -0 -0 -0 -0 -0 -0 -0 -0 -0 -34 -41 -44 -30 -0 -6 -0 -0 -0 -0 -0 -0 -132 -0 -31 -5 -2 -2 -3 -0 -0 -0 -0 -1 -2 -2 -4 -4 -1 -0 -0 -0 -1 -2 -2 -0 -0 -0 -10
-0 -0 -0 -0 -0 -0 -0 -0 -0 -0 -0 -18 -39 -42 -78 -0 -0 -0 -0 -0 -68 -162 -157 -0 -103 -0 -1 -2 -4 -1 -0 -0 -0 -3 -1 -3 -3 -0 -0 -1 -4 -3 -2 -1 -1 -0 -0 -0 -0
-0 -0 -0 -0 -0 -0 -0 -0 -0 -0 -0 -0 -0 -8 -83 -0 -21 -0 -0 -0 -260 -295 -202 -113 -99 -0 -0 -3 -5 -1 -2 -0 -0 -1 -2 -1 -0 -0 -4 -4 -2 -2 -1 -0 -0 -0 -0 -0 -0
-0 -0 -0 -0 -0 -0 -0 -0 -0 -0 -0 -0 -0 -0 -21 -262 -0 -362 -361 -325 -270 -254 -214 -96 -73 -0 -0 -1 -1 -0 -2 -1 -0 -1 -3 -2 -0 -0 -3 -1 -1 -0 -0 -0 -0 -0 -0 -0 -0
-0 -0 -0 -0 -0 -0 -0 -0 -0 -0 -0 -0 -5 -1 -0 -138 -0 -0 -0 -0 -226 -0 -0 -154 -69 -72 -22 -3 -0 -0 -0 -1 -1 -1 -3 -0 -2 -3 -5 -4 -2 -1 -0 -0 -0 -0 -0 -0 -0
-0 -0 -0 -0 -0 -0 -0 -0 -0 -0 -0 -0 -42 -61 -133 -105 -0 -0 -0 -0 -0 -167 -0 -0 -141 -77 -86 -31 -0 -0 -0 -2 -1 -1 -2 -2 -7 -5 -3 -0 -1 -1 -0 -0 -0 -0 -0 -0 -0
-0 -0 -0 -0 -0 -0 -0 -0 -0 -0 -0 -0 -0 -76 -103 -239 -0 -0 -0 -0 -0 -0 -0 -0 -0 -144 -94 -91 -0 -3 -0 -0 -0 -1 -4 -3 -0 -0 -0 -0 -2 -2 -0 -0 -0 -0 -0 -0 -0
-0 -0 -0 -0 -0 -0 -0 -0 -0 -0 -0 -0 -0 -0 -0 -170 -0 -0 -0 -0 -0 -0 -0 -0 -0 -0 -105 -90 -146 -6 -1 -0 -0 -0 -0 -0 -0 -0 -0 -0 -1 -2 -0 -0 -0 -0 -0 -0 -0
-0 -0 -0 -0 -0 -0 -0 -0 -0 -0 -0 -0 -0 -0 -0 -96 -148 -0 -0 -0 -0 -0 -9 -0 -0 -0 -0 -112 -105 -63 -5 -0 -0 -0 -0 -0 -0 -0 -0 -0 -0 -0 -0 -0 -0 -0 -0 -0 -0
-0 -0 -0 -0 -0 -0 -0 -0 -0 -0 -0 -0 -0 -0 -0 -63 -102 -39 -0 -0 -0 -0 -0 -86 -0 -0 -0 -0 -2 -2 -4 -0 -0 -0 -0 -0 -0 -0 -0 -0 -0 -0 -0 -0 -0 -0 -0 -0 -0
-0 -0 -0 -0 -0 -0 -0 -0 -0 -0 -0 -0 -0 -0 -0 -57 -45 -93 -0 -0 -149 -224 -202 -168 -145 -0 -0 -1 -0 -3 -4 -0 -0 -0 -0 -0 -0 -0 -0 -0 -0 -26 -0 -0 -0 -0 -0 -0 -0
-0 -0 -0 -0 -0 -0 -0 -0 -0 -0 -0 -0 -0 -0 -0 -0 -9 -33 -28 -0 -0 -231 -152 -138 -111 -105 -108 -0 -2 -1 -4 -9 -0 -0 -0 -0 -0 -0 -0 -0 -0 -26 -0 -0 -0 -0 -0 -0 -0
-0 -0 -0 -0 -0 -0 -0 -0 -0 -0 -0 -0 -0 -0 -0 -0 -0 -49 -53 -1 -0 -0 -158 -132 -46 -51 -62 -97 -0 -4 -0 -0 -10 -0 -0 -0 -0 -0 -0 -0 -0 -0 -0 -0 -0 -0 -0 -0 -0
-0 -0 -0 -0 -0 -0 -0 -0 -0 -0 -0 -0 -0 -0 -0 -0 -0 -0 -0 -135 -0 -0 -79 -102 -60 -72 -52 -63 -89 -27 -68 -0 -21 -0 -0 -0 -0 -0 -0 -0 -0 -0 -0 -0 -0 -0 -0 -0 -0
-0 -0 -0 -0 -0 -0 -0 -0 -0 -0 -0 -0 -0 -0 -0 -0 -0 -0 -0 -0 -109 -41 -0 -35 -63 -45 -79 -64 -134 -0 -10 -0 -0 -0 -0 -0 -0 -0 -0 -0 -0 -0 -0 -0 -0 -0 -0 -0 -0
-0 -0 -0 -0 -0 -0 -0 -0 -0 -0 -0 -0 -0 -0 -0 -0 -0 -0 -0 -0 -0 -123 -100 -0 -72 -20 -52 -45 -157 -0 -0 -0 -0 -0 -0 -0 -0 -0 -0 -0 -0 -0 -0 -0 -0 -0 -0 -0 -0
-0 -0 -0 -0 -0 -0 -0 -0 -0 -0 -0 -0 -0 -0 -0 -0 -0 -0 -0 -0 -0 -114 -109 -152 -38 -49 -76 -103 -0 -0 -0 -0 -0 -0 -0 -0 -0 -0 -0 -0 -0 -0 -0 -0 -0 -0 -0 -0 -0
-0 -0 -0 -0 -0 -0 -0 -0 -0 -0 -0 -0 -0 -0 -0 -0 -0 -0 -0 -0 -0 -0 -120 -104 -183 -130 -98 -0 -0 -0 -0 -0 -0 -0 -0 -0 -0 -0 -0 -0 -0 -0 -0 -0 -0 -0 -0 -0 -0
-0 -0 -0 -0 -0 -0 -0 -0 -0 -0 -0 -0 -0 -0 -0 -0 -0 -0 -0 -0 -0 -0 -54 -96 -151 -90 -165 -0 -0 -0 -0 -0 -0 -0 -0 -0 -0 -0 -0 -0 -0 -0 -0 -0 -0 -0 -0 -0 -0
-0 -0 -0 -0 -0 -0 -0 -0 -0 -0 -0 -0 -0 -0 -0 -0 -0 -0 -0 -0 -0 -0 -62 -48 -91 -54 -0 -0 -0 -0 -0 -0 -0 -0 -0 -0 -0 -0 -0 -0 -0 -0 -0 -0 -0 -0 -0 -0 -0
-0 -0 -0 -0 -0 -0 -0 -0 -0 -0 -0 -0 -0 -0 -0 -0 -0 -0 -0 -0 -0 -0 -53 -53 -37 -36 -7 -0 -0 -0 -0 -0 -0 -0 -0 -0 -0 -0 -0 -0 -0 -0 -0 -0 -0 -0 -0 -0 -0
-0 -0 -0 -0 -0 -0 -0 -0 -0 -0 -0 -0 -0 -0 -0 -0 -0 -0 -0 -0 -0 -0 -0 -90 -30 -15 -44 -0 -0 -0 -0 -0 -0 -0 -0 -0 -0 -0 -0 -0 -0 -0 -0 -0 -0 -0 -0 -0 -0
-0 -0 -0 -0 -0 -0 -0 -0 -0 -0 -0 -0 -0 -0 -0 -0 -0 -0 -0 -0 -0 -0 -0 -0 -26 -3 -6 -0 -0 -0 -0 -0 -0 -0 -0 -0 -0 -0 -0 -0 -0 -0 -0 -0 -0 -0 -0 -0 -0
-0 -0 -0 -0 -0 -0 -0 -0 -0 -0 -0 -0 -0 -0 -0 -0 -0 -0 -0 -0 -0 -0 -0 -0 -0 -21 -10 -0 -0 -0 -0 -0 -0 -0 -0 -0 -0 -0 -0 -0 -0 -0 -0 -0 -0 -0 -0 -0 -0
-0 -0 -0 -0 -0 -0 -0 -0 -0 -0 -0 -0 -0 -0 -0 -0 -0 -0 -0 -0 -0 -0 -0 -0 -0 -22 -67 -0 -0 -0 -0 -0 -0 -0 -0 -0 -0 -0 -0 -0 -0 -0 -0 -0 -0 -0 -0 -0 -0
-0 -0 -0 -0 -0 -0 -0 -0 -0 -0 -0 -0 -0 -0 -0 -0 -0 -1 -0 -0 -0 -0 -0 -0 -0 -0 -32 -0 -0 -0 -0 -0 -0 -0 -0 -0 -0 -0 -0 -0 -0 -0 -0 -0 -0 -0 -0 -0 -0
-0 -0 -0 -0 -0 -0 -0 -0 -0 -0 -0 -1 -0 -0 -0 -0 -2 -0 -0 -0 -0 -0 -0 -0 -0 -0 -0 -0 -0 -0 -0 -0 -0 -0 -0 -0 -0 -0 -0 -0 -0 -0 -0 -0 -0 -0 -0 -0 -0
Wind_Speed
26 25 21 19 18 18 21 20 20 19 19 15 14 10 4 13 10 11 12 6 12 16 14 14 14 12 10 9 9 9 9 9 10 11 11 11 11 10 10 11 11 11 12 12 13 13 14 14 15
26 23 20 18 20 21 23 21 22 23 16 14 13 15 15 14 15 13 7 5 12 15 15 13 14 13 11 9 9 9 8 8 10 10 10 10 9 11 11 11 10 11 11 12 13 13 13 14 15
24 20 22 20 21 22 21 15 13 19 17 15 12 15 16 17 14 5 12 8 10 13 14 14 15 14 12 11 9 9 9 9 10 10 10 9 10 9 10 10 10 11 12 12 12 12 13 14 15
21 21 22 26 25 22 19 15 15 20 19 17 16 18 18 16 15 6 4 6 9 11 14 15 15 13 12 10 10 9 9 8 9 9 9 9 8 9 10 10 11 11 11 11 12 12 13 14 13
18 20 27 27 31 29 24 30 26 26 24 20 15 20 19 19 14 4 3 3 8 10 12 15 15 14 13 12 11 9 10 9 10 10 10 9 8 9 10 10 10 10 10 11 12 12 13 12 12
19 20 26 32 33 33 31 30 32 32 32 30 22 18 20 20 13 7 0 3 3 6 9 11 13 13 13 12 11 10 10 9 9 8 8 7 7 8 8 8 9 10 10 11 11 12 12 12 12
21 22 27 30 33 34 31 26 26 29 31 31 24 22 22 19 15 6 5 3 3 4 7 8 9 11 10 9 9 9 8 7 7 6 6 6 6 7 6 6 8 8 9 9 10 12 11 12 12
8 22 29 30 33 38 30 27 27 28 32 24 20 26 26 16 11 10 7 6 6 5 8 9 8 8 9 8 9 7 7 5 6 6 6 5 4 4 4 5 6 7 7 8 9 11 11 11 12
14 20 27 29 30 30 28 30 28 30 30 28 25 27 26 12 9 11 11 10 9 9 9 10 10 10 9 9 9 9 8 6 6 5 5 6 3 2 3 3 4 6 7 7 8 9 10 10 11
11 19 23 23 23 27 29 34 35 34 36 32 31 28 25 11 11 12 13 13 13 11 11 12 11 11 11 10 10 9 8 7 6 4 3 3 3 3 3 2 3 5 6 7 8 7 9 9 10
21 26 29 30 31 34 35 35 30 35 39 32 32 32 26 16 13 14 16 17 13 13 11 12 12 12 11 12 12 11 10 9 8 6 4 3 3 2 2 1 2 5 6 7 8 6 7 8 9
26 25 27 32 35 38 40 37 35 32 34 37 37 35 28 24 18 16 17 22 19 17 15 14 13 13 13 13 13 13 12 11 10 8 6 5 4 4 3 2 1 2 4 6 7 7 7 8 9
25 29 36 37 39 40 42 44 42 43 43 45 42 38 33 26 27 24 22 22 23 21 18 17 15 14 14 15 14 14 13 13 12 10 9 7 6 6 5 4 4 3 4 5 6 7 7 8 9
26 31 33 32 36 38 40 46 40 37 38 42 41 39 35 30 32 31 28 25 21 22 22 20 18 17 16 16 16 16 16 14 13 12 11 9 9 7 7 7 7 7 5 5 5 7 7 9 9
26 31 31 24 35 36 41 47 39 39 37 42 43 41 41 40 37 34 32 28 25 23 22 22 22 19 19 18 18 18 17 16 15 14 13 11 10 10 9 9 9 9 7 5 5 7 8 9 10
29 26 38 31 36 33 36 48 45 39 42 47 45 44 43 42 41 39 35 34 31 27 23 23 22 23 20 19 19 18 18 18 18 17 15 14 12 10 10 10 9 9 7 5 5 6 8 9 10
31 41 41 39 36 36 36 53 42 49 51 51 50 49 46 47 46 43 39 36 33 31 29 26 24 24 24 21 19 19 18 18 19 18 17 15 14 12 12 11 10 8 7 7 6 7 8 9 10
41 41 38 45 38 44 47 57 52 50 52 55 53 50 49 49 49 45 43 39 37 32 30 31 29 27 23 24 24 22 21 20 18 18 16 15 16 15 14 13 12 10 9 8 8 8 9 9 9
39 41 45 45 41 44 48 56 56 55 51 51 51 50 51 49 47 47 46 43 40 36 32 29 29 30 28 26 25 25 23 21 19 19 18 17 17 16 15 14 13 12 11 10 8 9 9 12 9
39 42 46 42 40 48 51 58 50 41 35 37 39 39 42 45 44 44 47 46 43 38 36 34 31 29 29 29 28 28 27 25 23 21 19 20 17 17 16 15 14 13 12 12 11 10 12 14 11
38 42 44 50 51 48 46 46 43 36 29 24 26 28 30 33 36 39 41 45 48 46 40 37 34 31 29 28 27 26 24 23 24 21 22 20 17 17 16 15 15 14 14 14 15 14 15 15 18
43 34 40 45 49 51 36 44 37 26 30 26 28 28 30 32 32 35 36 39 42 44 39 38 38 35 31 28 27 26 26 27 27 23 20 18 17 15 13 13 9 13 15 15 16 16 17 13 14
38 35 37 41 39 37 31 31 35 32 27 30 30 31 32 33 34 36 36 37 40 42 40 33 35 37 35 31 29 27 27 27 24 20 18 16 14 11 11 9 10 11 12 12 15 16 15 14 14
31 36 35 27 27 31 28 29 30 27 28 32 32 34 35 38 38 37 36 36 38 39 41 36 31 33 35 33 30 28 26 24 24 22 21 16 13 12 11 9 10 9 8 10 11 12 13 12 11
33 33 33 27 29 30 28 32 28 30 29 30 36 40 41 42 42 41 40 39 38 38 40 40 34 31 31 34 33 30 28 25 24 23 21 18 15 14 12 10 9 9 8 8 7 9 10 10 11
26 25 28 30 34 40 30 24 29 25 27 34 39 43 45 45 43 43 42 41 40 38 40 40 39 35 31 31 32 30 27 26 25 24 22 20 17 13 10 7 6 6 5 7 7 8 10 11 13
21 21 8 13 15 24 17 9 13 23 36 44 48 48 48 46 45 45 43 42 41 39 38 39 39 37 33 29 29 29 25 25 24 23 21 18 15 10 8 6 4 2 3 4 6 9 9 10 9
9 5 13 15 24 30 7 6 9 29 42 47 49 49 48 46 47 46 44 42 41 41 38 39 40 41 33 30 27 27 25 24 20 19 20 17 14 11 6 4 2 2 3 5 7 8 8 8 8
5 6 12 7 6 4 10 9 19 38 47 48 50 50 48 50 48 46 43 41 40 40 40 38 39 38 32 29 25 21 19 14 13 15 15 16 12 9 7 3 2 1 4 6 6 7 7 8 9
4 7 7 3 4 6 7 9 15 30 38 48 49 48 50 48 46 44 41 39 37 37 37 36 33 34 28 28 25 21 16 12 12 10 10 11 10 8 5 4 2 3 5 5 7 7 8 8 9
Wind_Direction
275 271 275 271 277 280 277 277 282 286 301 309 299 311 341 319 348 345 321 18 105 130 130 128 125 118 113 104 99 97 91 86 82 87 82 75 72 61 59 59 53 50 47 44 44 42 41 41 38
276 277 276 278 274 272 273 279 279 279 300 296 301 299 302 317 306 321 6 36 113 131 133 131 130 123 118 110 103 105 95 91 91 86 81 75 65 73 67 63 52 54 50 51 47 41 36 33 34
283 289 273 275 274 269 277 287 295 280 289 294 304 305 302 304 313 2 313 91 114 132 138 136 134 129 125 118 108 107 106 98 98 90 83 76 77 65 64 56 56 59 58 54 45 36 31 29 32
289 285 277 270 272 277 275 279 293 288 290 290 292 294 299 302 309 329 38 100 121 134 143 141 139 136 130 126 117 112 113 104 101 95 88 79 70 64 63 68 69 66 57 47 40 34 26 24 15
305 291 273 275 270 269 276 267 279 282 285 289 296 292 294 291 304 3 77 114 131 140 149 148 145 143 140 136 128 122 120 113 107 102 95 88 73 74 81 75 69 60 53 45 38 32 25 14 9
295 292 280 273 271 268 270 274 276 276 276 279 288 293 291 286 299 305 32 134 169 155 159 157 155 152 149 146 140 133 127 122 117 107 98 88 82 84 79 72 62 61 50 44 40 32 23 18 21
296 290 283 282 279 274 275 282 279 281 280 277 283 284 288 286 284 287 276 251 197 209 188 187 172 166 165 164 156 147 140 130 126 116 105 95 90 96 80 70 67 50 46 38 32 25 21 30 34
338 298 286 284 280 273 279 282 283 283 277 292 289 280 282 288 276 275 269 254 255 228 200 210 210 191 186 190 180 172 165 152 138 129 116 106 98 96 81 73 59 43 30 32 30 23 24 39 35
320 300 291 288 286 283 290 284 284 287 282 284 285 283 287 283 268 263 259 260 255 245 223 217 218 219 214 206 196 186 177 174 157 144 132 122 111 108 88 67 33 23 24 19 23 22 31 36 27
312 301 299 301 305 299 297 286 285 282 279 280 283 287 289 268 257 246 243 246 246 239 231 225 223 221 226 225 205 207 204 200 191 182 158 153 141 134 114 72 25 11 8 6 354 21 33 23 13
314 298 300 296 297 296 289 292 295 284 275 279 281 285 288 270 252 245 248 245 232 246 239 233 228 225 224 231 228 229 223 221 212 196 181 190 197 181 159 99 10 342 347 350 355 17 14 11 5
310 308 307 302 297 292 287 289 287 284 282 280 280 284 287 270 259 249 251 253 248 245 243 241 236 226 228 236 232 239 232 229 228 215 202 208 213 204 216 234 298 342 347 354 358 4 5 359 358
318 312 303 301 299 295 289 283 282 279 280 274 278 279 279 274 265 262 262 261 254 249 243 240 237 233 232 234 237 238 238 238 239 233 222 220 225 223 224 231 263 289 321 336 348 354 350 349 350
331 321 315 310 304 299 292 285 284 282 284 277 276 277 277 275 267 266 264 261 252 249 247 244 241 240 238 234 238 239 243 241 242 243 238 234 241 234 239 249 260 273 286 309 328 337 343 343 347
337 325 323 322 315 305 299 285 282 287 284 279 275 276 274 271 269 265 263 260 256 250 247 244 246 243 242 239 241 240 243 245 242 242 238 239 237 249 248 255 261 268 278 294 319 331 339 344 344
339 336 320 322 316 312 307 283 284 289 287 277 276 275 272 272 270 268 265 261 261 255 245 243 244 245 243 240 242 241 243 245 248 247 246 241 240 242 249 256 258 272 272 278 300 320 329 336 340
343 324 322 319 321 312 306 287 289 289 284 277 276 274 272 269 268 267 267 264 261 256 252 247 243 244 245 246 244 246 244 243 249 250 251 243 242 241 249 254 254 257 258 272 285 307 316 325 331
332 328 323 316 317 309 300 289 292 291 284 277 275 274 272 269 265 266 265 266 263 258 253 249 247 246 242 245 247 250 250 250 245 247 247 244 244 248 253 257 255 255 259 271 283 295 313 317 325
333 326 320 316 318 310 303 294 294 290 285 279 277 274 272 271 269 265 264 263 265 259 252 248 243 245 244 244 242 245 246 249 249 252 248 250 245 247 254 256 259 255 255 265 268 294 298 311 318
335 328 321 319 319 312 305 294 297 295 294 289 283 283 280 276 272 268 264 261 262 261 254 249 243 240 241 244 245 250 247 254 255 252 254 253 246 249 251 253 256 252 259 268 267 273 294 304 303
338 329 326 318 315 311 307 299 299 298 298 302 305 298 295 293 283 276 270 264 260 258 256 249 244 239 238 241 242 249 251 258 255 252 254 257 253 254 253 256 255 255 263 264 271 273 288 291 300
337 339 332 325 318 309 314 296 300 299 301 303 304 304 303 300 295 287 280 272 267 261 258 252 246 241 238 235 235 233 240 248 254 252 246 249 253 256 258 261 253 263 270 274 277 282 292 289 289
337 338 334 327 320 321 318 301 299 297 294 300 302 301 305 306 299 292 286 279 272 265 259 256 248 242 239 234 232 234 241 248 252 248 241 251 249 251 259 253 273 274 277 282 281 291 295 297 296
349 346 342 345 339 326 324 316 296 300 300 301 303 302 302 304 301 295 291 286 278 269 261 254 250 244 237 235 233 231 236 239 244 244 245 240 246 251 260 265 274 288 276 295 299 307 305 307 313
359 360 354 349 341 330 338 315 301 304 306 306 305 304 302 302 299 295 290 284 281 273 261 256 248 244 239 234 236 235 236 234 233 235 236 238 245 252 261 268 279 285 291 314 323 328 330 332 332
9 19 9 347 340 318 343 323 319 337 325 315 309 307 304 300 297 295 289 284 278 276 264 257 249 244 242 235 234 236 234 238 241 237 237 240 244 247 251 260 281 291 299 326 338 349 344 340 340
23 21 41 18 14 355 20 32 8 356 321 317 313 308 304 301 297 294 290 284 276 273 268 258 253 245 241 239 238 235 230 232 235 238 240 241 241 235 245 256 273 282 328 348 352 345 349 357 360
59 59 33 37 17 350 22 320 357 350 312 312 310 310 307 303 298 293 289 283 276 270 267 261 252 246 240 238 243 238 240 231 230 233 235 236 229 227 218 241 261 300 344 357 355 356 6 28 19
71 59 47 50 52 21 293 325 16 335 314 310 309 309 306 303 298 293 287 283 277 270 264 260 251 246 235 233 235 239 233 229 224 232 230 232 229 217 216 222 215 5 348 5 16 36 43 52 44
121 60 55 53 10 331 326 326 30 308 307 311 309 313 309 305 298 293 288 282 278 270 263 256 252 244 229 228 230 232 231 239 230 231 227 224 214 199 209 177 150 58 45 41 48 53 55 50 43